Погода в Верхнем Пенжино

Россия / Камчатский край     64°13′18″N   164°14′13″E
темп.,
°C
ветер,
м/с
пор.,
м/с
влажн.,
%
обл.,
%
осадки,
мм/ч
давл.,
гПа
погр.,
м
28 ноября, вс
вс2800:00−20ссв2299100 0.9 102184
03:00−19ссв1299100 0.6 1020103
06:00−19св1199100 1.4 101986
09:00−19в1199100 1.1 101889
12:00−19в1198100 2.1 1018101
15:00−18в1198100 0.9 1016100
18:00−18в1198100 1.4 101697
21:00−19в1199100 0.3 101616
29 ноября, пн
пн2900:00−19вюв1198100 0.6 101655
03:00−21вюв11100100 0.1 101610
06:00−24вюв11100100 0.1 10179
09:00−24ссв00100100 0.1 101710
12:00−21с0098100 0.1 101673
15:00−18всв1197100 0.5 101577
18:00−19в1199100 0.6 101415
21:00−18в1197100 0.3 101455
30 ноября, вт
вт3000:00−19в1199100 0.4 101318
03:00−17в1197100 0.4 101064
06:00−16вюв1197100 1.7 100957
09:00−15ююв1197100 0.9 100763
12:00−14ю0096100 1.8 100658
15:00−14сз0097100 0.9 100532
18:00−14з1197100 1.6 100416
21:00−14ю1197100 0.6 100412
1 декабря, ср
ср100:00−15ююв1197100 1.0 100411
03:00−16юв1197100 0.4 10059
06:00−17з1198100 0.7 100710
09:00−20сз11100100 0.3 100910
12:00−22сз2299100 0.4 101219
15:00−25сз229989 0.1 101510
18:00−29сз229676 0.1 101913
21:00−33сз229645 0.0 102310
2 декабря, чт
чт200:00−37сз22975 0.0 10279
03:00−39сз22985 0.0 10308
06:00−40сз22995 0.0 10328
09:00−41сз111007 0.0 10338
12:00−40ссз1110071 0.0 10338
15:00−37с1197100 0.0 103112
18:00−34ссв1195100 0.0 102736
21:00−27ссв2293100 0.1 1018137